period_start,C,m1,H,J0,J1,J2,J3,J4,J5,JA,JB,JC,JD,JJ,JK,JN,#
2013-12-29 00:00:12,0.06,9.41,0.00,25.26,26.92,29.63,5.73,30.75,1006.36,2036.89,1306.02,1628.97,1784.98,349.56,317.87,33.22,0000 0000 0000 0000 000000
2013-12-29 00:01:12,0.05,9.41,0.00,25.26,26.92,29.61,5.88,30.83,1006.36,2036.92,1306.00,1628.93,1784.89,350.10,318.28,33.23,0000 0000 0000 0000 000000
2013-12-29 00:02:12,0.11,9.41,0.00,25.26,26.92,29.62,5.81,30.96,1006.36,2036.93,1306.00,1628.71,1784.62,350.10,318.37,33.24,0000 0000 0000 0000 000000
2013-12-29 00:03:13,0.30,9.42,0.00,25.26,26.92,29.60,6.00,30.96,1006.36,2036.95,1305.95,1628.38,1784.28,350.51,318.73,33.24,0000 0000 0000 0000 000000
2013-12-29 00:04:13,0.35,9.42,0.00,25.26,26.92,29.59,5.89,30.83,1006.37,2036.98,1305.64,1628.17,1784.11,350.20,318.83,33.25,0000 0000 0000 0000 000000
2013-12-29 00:05:13,0.40,9.42,0.00,25.27,26.92,29.64,5.82,31.04,1006.40,2036.96,1305.31,1628.07,1784.04,349.71,318.01,33.25,0000 0000 0000 0000 000000
2013-12-29 00:06:13,0.28,9.42,0.00,25.27,26.92,29.66,5.63,30.88,1006.47,2036.94,1305.12,1628.02,1784.01,349.17,317.54,33.26,0000 0000 0000 0000 000000
2013-12-29 00:07:14,0.10,9.42,0.00,25.25,26.92,29.66,5.69,30.83,1006.44,2036.93,1305.04,1628.00,1784.00,348.86,317.06,33.27,0000 0000 0000 0000 000000
2013-12-29 00:08:14,0.08,9.42,0.00,25.26,26.91,29.67,5.59,30.58,1006.42,2036.94,1305.01,1628.00,1784.00,349.28,317.64,33.27,0000 0000 0000 0000 000000
2013-12-29 00:09:14,0.05,9.42,0.00,25.26,26.91,29.66,5.93,30.71,1006.38,2036.94,1305.00,1627.98,1784.00,350.23,318.49,33.28,0000 0000 0000 0000 000000
2013-12-29 00:10:14,0.00,9.42,0.00,25.27,26.90,29.66,5.81,30.75,1006.39,2036.95,1304.98,1627.99,1783.98,349.79,318.07,33.28,0000 0000 0000 0000 000000
2013-12-29 00:11:14,0.04,9.42,0.00,25.27,26.90,29.66,5.82,30.88,1006.40,2036.96,1304.88,1627.97,1783.83,349.44,317.58,33.29,0000 0000 0000 0000 000000
2013-12-29 00:12:15,0.17,9.42,0.00,25.28,26.90,29.63,5.77,30.83,1006.39,2036.97,1304.59,1627.80,1783.48,349.43,317.99,33.29,0000 0000 0000 0000 000000
2013-12-29 00:13:15,0.45,9.43,0.00,25.27,26.90,29.63,5.88,30.71,1006.38,2036.96,1304.27,1627.51,1783.22,349.82,318.10,33.30,0000 0000 0000 0000 000000
2013-12-29 00:14:15,0.44,9.43,0.00,25.28,26.90,29.61,5.73,30.67,1006.36,2036.93,1304.10,1627.23,1783.09,349.38,317.85,33.31,0000 0000 0000 0000 000000
2013-12-29 00:15:16,0.28,9.43,0.00,25.27,26.90,29.63,5.88,30.71,1006.36,2036.93,1304.03,1627.10,1783.03,350.15,318.50,33.31,0000 0000 0000 0000 000000
2013-12-29 00:16:16,0.15,9.43,0.00,25.26,26.90,29.63,5.81,30.79,1006.39,2036.94,1304.01,1627.03,1783.01,350.01,318.09,33.32,0000 0000 0000 0000 000000
2013-12-29 00:17:16,0.07,9.43,0.00,25.26,26.90,29.62,5.82,30.54,1006.36,2036.95,1303.99,1627.01,1782.99,350.88,319.07,33.32,0000 0000 0000 0000 000000
2013-12-29 00:18:16,0.04,9.43,0.00,25.27,26.90,29.62,5.92,30.71,1006.38,2036.93,1303.98,1627.00,1782.99,349.70,317.91,33.33,0000 0000 0000 0000 000000
2013-12-29 00:19:17,0.00,9.43,0.00,25.25,26.90,29.61,5.87,30.79,1006.37,2036.96,1303.88,1626.99,1782.94,349.93,318.34,33.34,0000 0000 0000 0000 000000
2013-12-29 00:20:17,0.14,9.43,0.00,25.23,26.90,29.64,5.88,30.75,1006.37,2036.94,1303.50,1626.97,1782.73,349.46,317.99,33.34,0000 0000 0000 0000 000000
2013-12-29 00:21:17,0.31,9.44,0.00,25.23,26.90,29.65,5.85,30.67,1006.40,2036.93,1303.21,1626.89,1782.46,350.62,318.87,33.35,0000 0000 0000 0000 000000
2013-12-29 00:22:18,0.29,9.44,0.00,25.23,26.90,29.63,5.77,30.83,1006.39,2036.94,1303.09,1626.76,1782.23,350.04,318.06,33.35,0000 0000 0000 0000 000000
2013-12-29 00:23:18,0.28,9.44,0.00,25.22,26.90,29.62,5.84,30.83,1006.38,2036.97,1303.03,1626.42,1782.09,350.66,319.01,33.36,0000 0000 0000 0000 000000
2013-12-29 00:24:18,0.31,9.44,0.00,25.22,26.90,29.60,5.74,30.63,1006.36,2036.96,1303.01,1626.21,1782.05,348.65,317.08,33.37,0000 0000 0000 0000 000000
2013-12-29 00:25:18,0.15,9.44,0.00,25.22,26.89,29.64,5.86,30.92,1006.36,2036.97,1303.00,1626.08,1782.02,350.21,318.51,33.37,0000 0000 0000 0000 000000
2013-12-29 00:26:19,0.10,9.44,0.00,25.21,26.89,29.64,5.85,30.83,1006.36,2036.93,1302.97,1626.02,1782.00,350.77,319.02,33.38,0000 0000 0000 0000 000000
2013-12-29 00:27:19,0.02,9.44,0.00,25.23,26.89,29.66,5.88,30.83,1006.36,2036.93,1302.89,1626.00,1782.00,349.79,318.12,33.38,0000 0000 0000 0000 000000
2013-12-29 00:28:19,0.06,9.44,0.00,25.24,26.88,29.64,5.88,30.96,1006.37,2036.95,1302.55,1626.00,1782.00,350.62,318.86,33.39,0000 0000 0000 0000 000000
2013-12-29 00:29:19,0.23,9.44,0.00,25.22,26.87,29.61,5.87,30.83,1006.36,2036.96,1302.25,1626.00,1781.99,349.55,317.91,33.39,0000 0000 0000 0000 000000
2013-12-29 00:30:20,0.23,9.45,0.00,25.20,26.87,29.62,5.84,30.71,1006.37,2036.97,1302.11,1626.00,1781.98,350.11,318.44,33.40,0000 0000 0000 0000 000000
2013-12-29 00:31:20,0.11,9.45,0.00,25.21,26.87,29.61,6.08,30.92,1006.36,2036.98,1302.04,1625.98,1781.88,350.21,317.66,33.41,0000 0000 0000 0000 000000
2013-12-29 00:32:20,0.10,9.45,0.00,25.23,26.87,29.66,5.81,30.75,1006.36,2036.95,1302.01,1625.95,1781.71,349.79,318.11,33.41,0000 0000 0000 0000 000000
2013-12-29 00:33:20,0.08,9.45,0.00,25.24,26.87,29.65,5.86,31.00,1006.36,2036.94,1302.00,1625.93,1781.41,350.42,318.54,33.42,0000 0000 0000 0000 000000
2013-12-29 00:34:21,0.10,9.45,0.00,25.22,26.87,29.62,5.87,30.79,1006.36,2036.95,1302.00,1625.80,1781.20,350.08,318.49,33.42,0000 0000 0000 0000 000000
2013-12-29 00:35:21,0.16,9.45,0.00,25.22,26.87,29.58,5.77,30.79,1006.36,2036.98,1301.99,1625.52,1781.08,349.82,318.14,33.43,0000 0000 0000 0000 000000
2013-12-29 00:36:21,0.24,9.45,0.00,25.21,26.87,29.60,5.92,30.79,1006.36,2036.98,1301.98,1625.23,1781.03,350.61,318.50,33.44,0000 0000 0000 0000 000000
2013-12-29 00:37:22,0.20,9.45,0.00,25.23,26.87,29.60,5.84,30.88,1006.36,2036.99,1301.93,1625.09,1781.01,349.39,317.75,33.44,0000 0000 0000 0000 000000
2013-12-29 00:38:22,0.14,9.45,0.00,25.18,26.87,29.61,5.92,31.00,1006.36,2036.98,1301.70,1625.05,1781.00,350.37,318.13,33.45,0000 0000 0000 0000 000000
2013-12-29 00:39:22,0.19,9.45,0.00,25.19,26.87,29.57,5.78,30.71,1006.36,2036.98,1301.32,1625.01,1781.00,349.22,317.64,33.45,0000 0000 0000 0000 000000
2013-12-29 00:40:22,0.25,9.46,0.00,25.21,26.87,29.58,5.98,30.88,1006.36,2036.99,1301.16,1625.00,1780.97,350.28,318.37,33.46,0000 0000 0000 0000 000000
2013-12-29 00:41:23,0.13,9.46,0.00,25.20,26.87,29.62,5.73,30.88,1006.36,2036.98,1301.05,1624.99,1780.74,349.85,318.03,33.46,0000 0000 0000 0000 000000
2013-12-29 00:42:23,0.15,9.46,0.00,25.18,26.87,29.65,5.92,30.75,1006.36,2036.98,1301.02,1624.98,1780.40,350.34,318.36,33.47,0000 0000 0000 0000 000000
2013-12-29 00:43:23,0.15,9.46,0.00,25.21,26.86,29.63,5.81,30.88,1006.35,2036.98,1301.00,1624.98,1780.17,349.14,317.27,33.48,0000 0000 0000 0000 000000
2013-12-29 00:44:23,0.09,9.46,0.00,25.20,26.86,29.60,5.88,31.04,1006.34,2036.97,1300.98,1624.86,1780.07,349.96,318.11,33.48,0000 0000 0000 0000 000000
2013-12-29 00:45:24,0.14,9.46,0.00,25.22,26.85,29.58,5.70,30.75,1006.36,2036.98,1300.71,1624.49,1780.02,349.28,317.91,33.49,0000 0000 0000 0000 000000
2013-12-29 00:46:24,0.39,9.46,0.00,25.24,26.85,29.57,5.87,30.79,1006.36,2036.96,1300.31,1624.19,1780.00,350.30,318.97,33.49,0000 0000 0000 0000 000000
2013-12-29 00:47:24,0.46,9.46,0.00,25.24,26.85,29.57,5.84,31.00,1006.36,2036.97,1300.11,1624.07,1779.99,349.85,318.15,33.50,0000 0000 0000 0000 000000
2013-12-29 00:48:24,0.21,9.47,0.00,25.19,26.85,29.57,5.90,31.00,1006.36,2036.97,1300.04,1624.02,1779.99,350.47,318.32,33.51,0000 0000 0000 0000 000000
2013-12-29 00:49:24,0.08,9.47,0.00,25.19,26.85,29.57,6.03,30.75,1006.36,2036.98,1300.01,1624.00,1779.98,350.77,319.01,33.51,0000 0000 0000 0000 000000
2013-12-29 00:50:25,0.04,9.47,0.00,25.19,26.85,29.60,5.80,30.88,1006.36,2036.98,1299.99,1624.00,1779.76,349.70,317.92,33.52,0000 0000 0000 0000 000000
2013-12-29 00:51:25,0.08,9.47,0.00,25.19,26.85,29.60,5.81,30.67,1006.36,2036.99,1299.97,1624.00,1779.51,348.82,317.26,33.52,0000 0000 0000 0000 000000
2013-12-29 00:52:25,0.13,9.47,0.00,25.21,26.85,29.60,5.79,30.75,1006.36,2036.99,1299.76,1623.97,1779.30,349.48,317.82,33.53,0000 0000 0000 0000 000000
2013-12-29 00:53:26,0.21,9.47,0.00,25.18,26.85,29.56,5.71,30.88,1006.36,2036.99,1299.38,1623.94,1779.17,349.64,318.57,33.54,0000 0000 0000 0000 000000
2013-12-29 00:54:26,0.30,9.47,0.00,25.18,26.85,29.59,5.78,30.96,1006.36,2036.98,1299.15,1623.89,1779.08,349.78,318.02,33.54,0000 0000 0000 0000 000000
2013-12-29 00:55:26,0.24,9.47,0.00,25.17,26.85,29.57,5.77,30.88,1006.36,2036.98,1299.06,1623.62,1779.02,350.25,318.59,33.55,0000 0000 0000 0000 000000
2013-12-29 00:56:26,0.23,9.47,0.00,25.17,26.85,29.57,5.89,31.00,1006.35,2036.99,1299.02,1623.32,1779.00,350.04,318.39,33.55,0000 0000 0000 0000 000000
2013-12-29 00:57:27,0.22,9.48,0.00,25.19,26.84,29.55,6.01,31.04,1006.36,2036.99,1299.00,1623.18,1779.00,350.82,319.09,33.56,0000 0000 0000 0000 000000
2013-12-29 00:58:27,0.11,9.48,0.00,25.19,26.84,29.58,5.84,31.08,1006.36,2036.98,1298.99,1623.11,1779.00,349.96,318.19,33.56,0000 0000 0000 0000 000000
2013-12-29 00:59:27,0.05,9.48,0.00,25.19,26.84,29.57,5.73,30.88,1006.36,2036.99,1298.96,1623.04,1778.98,349.26,317.67,33.57,0000 0000 0000 0000 000000
2013-12-29 01:00:27,0.07,9.48,0.00,25.17,26.83,29.57,5.79,31.04,1006.36,2036.99,1298.76,1623.01,1778.98,350.06,318.24,33.58,0000 0000 0000 0000 000000
2013-12-29 01:01:28,0.14,9.48,0.00,25.18,26.83,29.54,5.93,31.21,1006.36,2036.98,1298.41,1623.00,1778.95,349.99,318.54,33.58,0000 0000 0000 0000 000000
2013-12-29 01:02:28,0.23,9.48,0.00,25.17,26.82,29.57,5.80,30.96,1006.36,2036.99,1298.21,1623.00,1778.90,350.73,318.60,33.59,0000 0000 0000 0000 000000
2013-12-29 01:03:28,0.17,9.48,0.00,25.16,26.82,29.57,5.93,31.08,1006.36,2036.99,1298.11,1623.00,1778.75,350.40,318.74,33.59,0000 0000 0000 0000 000000
2013-12-29 01:04:29,0.13,9.48,0.00,25.17,26.82,29.56,5.87,31.29,1006.36,2036.99,1298.05,1622.98,1778.49,350.13,318.49,33.60,0000 0000 0000 0000 000000
2013-12-29 01:05:29,0.13,9.48,0.00,25.16,26.82,29.57,5.99,31.00,1006.36,2036.99,1298.03,1622.98,1778.31,350.06,318.43,33.61,0000 0000 0000 0000 000000
2013-12-29 01:06:29,0.08,9.48,0.00,25.16,26.82,29.57,5.85,31.00,1006.36,2036.99,1298.02,1622.96,1778.16,350.10,318.46,33.61,0000 0000 0000 0000 000000
2013-12-29 01:07:29,0.09,9.48,0.00,25.18,26.82,29.54,6.00,31.13,1006.36,2036.99,1298.01,1622.75,1778.06,350.49,318.80,33.62,0000 0000 0000 0000 000000
2013-12-29 01:08:30,0.14,9.48,0.00,25.17,26.82,29.58,5.88,31.13,1006.36,2036.99,1298.00,1622.42,1778.02,349.53,317.59,33.62,0000 0000 0000 0000 000000
2013-12-29 01:09:30,0.22,9.49,0.00,25.15,26.82,29.58,5.72,30.88,1006.36,2036.99,1297.94,1622.16,1777.98,349.51,317.94,33.63,0000 0000 0000 0000 000000
2013-12-29 01:10:30,0.20,9.49,0.00,25.15,26.82,29.58,5.88,31.13,1006.36,2036.99,1297.73,1622.07,1777.95,349.77,317.83,33.63,0000 0000 0000 0000 000000
2013-12-29 01:11:31,0.26,9.49,0.00,25.13,26.82,29.57,5.92,31.00,1006.36,2036.99,1297.31,1622.02,1777.67,350.94,318.99,33.64,0000 0000 0000 0000 000000
2013-12-29 01:12:31,0.35,9.49,0.00,25.14,26.82,29.56,5.97,31.13,1006.36,2036.99,1297.11,1622.00,1777.38,349.94,318.35,33.65,0000 0000 0000 0000 000000
2013-12-29 01:13:31,0.24,9.49,0.00,25.14,26.82,29.57,5.88,31.21,1006.36,2036.99,1297.04,1622.00,1777.18,349.99,318.83,33.65,0000 0000 0000 0000 000000
2013-12-29 01:14:31,0.10,9.49,0.00,25.14,26.82,29.56,5.73,31.04,1006.36,2036.99,1297.00,1621.98,1777.10,349.94,318.14,33.66,0000 0000 0000 0000 000000
2013-12-29 01:15:32,0.06,9.49,0.00,25.14,26.82,29.58,5.84,31.17,1006.36,2036.99,1296.98,1621.94,1777.03,350.60,318.87,33.66,0000 0000 0000 0000 000000
2013-12-29 01:16:32,0.08,9.49,0.00,25.14,26.82,29.53,5.72,31.17,1006.36,2036.99,1296.96,1621.79,1777.01,349.12,317.37,33.67,0000 0000 0000 0000 000000
2013-12-29 01:17:32,0.15,9.49,0.00,25.14,26.82,29.54,5.76,31.21,1006.36,2036.99,1296.89,1621.45,1777.00,350.03,318.91,33.68,0000 0000 0000 0000 000000
2013-12-29 01:18:33,0.23,9.49,0.00,25.14,26.82,29.54,5.82,31.21,1006.36,2036.99,1296.62,1621.25,1777.00,350.52,318.63,33.68,0000 0000 0000 0000 000000
2013-12-29 01:19:33,0.22,9.50,0.00,25.12,26.81,29.55,5.76,31.08,1006.36,2036.99,1296.60,1621.14,1777.00,349.63,318.08,33.69,0000 0000 0000 0000 000000
2013-12-29 01:20:33,0.11,9.50,0.00,25.14,26.81,29.56,5.82,31.17,1006.36,2036.99,1296.48,1621.09,1776.98,350.35,318.49,33.69,0000 0000 0000 0000 000000
2013-12-29 01:21:33,0.16,9.50,0.00,25.15,26.80,29.56,6.00,31.25,1006.36,2036.99,1296.20,1621.04,1776.79,350.68,319.01,33.70,0000 0000 0000 0000 000000
2013-12-29 01:22:34,0.29,9.50,0.00,25.15,26.80,29.52,6.05,31.21,1006.36,2037.00,1296.08,1621.01,1776.41,350.65,318.86,33.71,0000 0000 0000 0000 000000
2013-12-29 01:23:34,0.23,9.50,0.00,25.10,26.80,29.52,6.05,31.08,1006.36,2037.00,1296.01,1621.00,1776.16,349.91,318.78,33.71,0000 0000 0000 0000 000000
2013-12-29 01:24:34,0.12,9.50,0.00,25.08,26.80,29.56,5.75,31.00,1006.36,2037.00,1295.99,1620.99,1776.07,349.81,318.27,33.72,0000 0000 0000 0000 000000
2013-12-29 01:25:35,0.04,9.50,0.00,25.11,26.80,29.58,5.88,31.21,1006.36,2037.00,1295.97,1620.98,1776.04,350.45,319.14,33.72,0000 0000 0000 0000 000000
2013-12-29 01:26:35,0.06,9.50,0.00,25.12,26.80,29.58,6.07,31.25,1006.36,2037.00,1295.75,1620.89,1776.01,349.71,318.15,33.73,0000 0000 0000 0000 000000
2013-12-29 01:27:35,0.27,9.50,0.00,25.13,26.80,29.57,6.03,31.33,1006.37,2037.00,1295.33,1620.49,1775.99,350.32,318.70,33.73,0000 0000 0000 0000 000000
2013-12-29 01:28:35,0.47,9.51,0.00,25.13,26.80,29.57,5.92,31.13,1006.38,2037.00,1295.12,1620.19,1775.90,349.89,318.92,33.74,0000 0000 0000 0000 000000
2013-12-29 01:29:36,0.38,9.51,0.00,25.12,26.80,29.59,5.82,31.04,1006.36,2037.00,1295.04,1620.06,1775.50,349.56,317.98,33.75,0000 0000 0000 0000 000000
2013-12-29 01:30:36,0.26,9.51,0.00,25.14,26.80,29.59,5.94,31.00,1006.38,2037.00,1294.94,1620.02,1775.18,350.41,318.41,33.75,0000 0000 0000 0000 000000
2013-12-29 01:31:36,0.22,9.51,0.00,25.13,26.80,29.60,5.83,30.88,1006.36,2037.00,1294.63,1620.00,1775.06,350.55,318.91,33.76,0000 0000 0000 0000 000000
2013-12-29 01:32:37,0.27,9.51,0.00,25.15,26.80,29.56,5.74,30.96,1006.36,2037.00,1294.26,1619.88,1775.00,349.85,318.41,33.76,0000 0000 0000 0000 000000
2013-12-29 01:33:37,0.33,9.51,0.00,25.16,26.80,29.53,5.82,30.92,1006.37,2037.00,1294.09,1619.48,1774.93,350.57,318.96,33.77,0000 0000 0000 0000 000000
2013-12-29 01:34:37,0.39,9.52,0.00,25.15,26.80,29.53,5.80,30.92,1006.36,2037.00,1294.00,1619.20,1774.47,350.27,318.63,33.78,0000 0000 0000 0000 000000
2013-12-29 01:35:37,0.37,9.52,0.00,25.17,26.80,29.51,5.93,31.13,1006.36,2037.00,1293.84,1619.08,1774.21,349.84,318.22,33.78,0000 0000 0000 0000 000000
2013-12-29 01:36:38,0.30,9.52,0.00,25.15,26.80,29.51,5.85,31.04,1006.36,2037.00,1293.42,1619.03,1774.08,349.01,317.70,33.79,0000 0000 0000 0000 000000
2013-12-29 01:37:38,0.33,9.52,0.00,25.16,26.80,29.53,5.78,31.08,1006.36,2037.00,1293.15,1618.98,1774.02,350.15,318.49,33.79,0000 0000 0000 0000 000000
2013-12-29 01:38:38,0.24,9.53,0.00,25.16,26.80,29.56,5.90,31.00,1006.37,2037.00,1293.05,1618.93,1773.99,350.19,318.55,33.80,0000 0000 0000 0000 000000
2013-12-29 01:39:39,0.11,9.53,0.00,25.16,26.79,29.57,5.87,30.88,1006.37,2037.00,1293.01,1618.72,1773.98,349.68,318.29,33.80,0000 0000 0000 0000 000000
2013-12-29 01:40:39,0.15,9.53,0.00,25.15,26.79,29.56,5.73,30.92,1006.40,2037.01,1292.89,1618.46,1773.83,349.46,317.90,33.81,0000 0000 0000 0000 000000
2013-12-29 01:41:39,0.34,9.53,0.00,25.16,26.79,29.54,5.65,30.88,1006.42,2037.00,1292.52,1618.20,1773.42,349.13,317.61,33.82,0000 0000 0000 0000 000000
2013-12-29 01:42:40,0.51,9.53,0.00,25.14,26.78,29.54,5.84,30.75,1006.38,2037.01,1292.19,1618.07,1773.16,348.62,317.30,33.82,0000 0000 0000 0000 000000
2013-12-29 01:43:40,0.40,9.53,0.00,25.12,26.78,29.52,5.86,31.00,1006.37,2037.00,1292.07,1618.02,1773.06,350.29,318.68,33.83,0000 0000 0000 0000 000000
2013-12-29 01:44:40,0.16,9.54,0.00,25.14,26.77,29.51,5.87,30.92,1006.36,2037.00,1292.02,1618.00,1773.01,350.10,318.45,33.83,0000 0000 0000 0000 000000
2013-12-29 01:45:41,0.06,9.54,0.00,25.13,26.77,29.51,5.87,30.83,1006.36,2037.00,1291.98,1617.93,1772.98,350.47,318.86,33.84,0000 0000 0000 0000 000000
2013-12-29 01:46:41,0.13,9.54,0.00,25.14,26.77,29.52,5.73,30.79,1006.36,2037.00,1291.72,1617.63,1772.76,350.17,318.56,33.85,0000 0000 0000 0000 000000
2013-12-29 01:47:41,0.52,9.54,0.00,25.13,26.77,29.52,5.83,30.92,1006.36,2037.00,1291.27,1617.26,1772.37,350.60,318.85,33.85,0000 0000 0000 0000 000000
2013-12-29 01:48:42,0.55,9.54,0.00,25.15,26.77,29.53,6.03,31.00,1006.38,2037.00,1291.10,1617.09,1772.19,350.47,318.58,33.86,0000 0000 0000 0000 000000
2013-12-29 01:49:42,0.29,9.54,0.00,25.16,26.77,29.55,5.91,31.04,1006.37,2037.00,1291.01,1617.03,1772.08,350.26,318.49,33.86,0000 0000 0000 0000 000000
2013-12-29 01:50:42,0.11,9.55,0.00,25.17,26.77,29.56,5.72,30.79,1006.37,2037.00,1290.93,1617.01,1772.02,348.64,317.21,33.87,0000 0000 0000 0000 000000
2013-12-29 01:51:42,0.10,9.55,0.00,25.15,26.77,29.53,5.73,30.75,1006.38,2037.00,1290.61,1616.97,1772.01,349.54,317.97,33.88,0000 0000 0000 0000 000000
2013-12-29 01:52:43,0.25,9.55,0.00,25.13,26.77,29.52,5.96,30.92,1006.38,2037.02,1290.25,1616.94,1771.97,350.61,318.44,33.88,0000 0000 0000 0000 000000
2013-12-29 01:53:43,0.27,9.55,0.00,25.14,26.77,29.49,5.84,31.13,1006.36,2037.02,1290.09,1616.73,1771.88,349.56,318.10,33.89,0000 0000 0000 0000 000000
2013-12-29 01:54:43,0.31,9.55,0.00,25.12,26.77,29.51,5.77,30.96,1006.36,2037.00,1290.03,1616.38,1771.49,349.51,317.98,33.89,0000 0000 0000 0000 000000
2013-12-29 01:55:43,0.35,9.55,0.00,25.11,26.77,29.52,5.88,31.08,1006.36,2037.00,1289.99,1616.14,1771.23,349.18,317.68,33.90,0000 0000 0000 0000 000000
2013-12-29 01:56:44,0.23,9.55,0.00,25.12,26.77,29.52,5.67,30.79,1006.36,2037.00,1289.76,1616.06,1771.09,349.22,317.71,33.90,0000 0000 0000 0000 000000
2013-12-29 01:57:44,0.26,9.56,0.00,25.11,26.77,29.54,5.93,30.92,1006.35,2037.00,1289.40,1616.02,1771.03,349.44,317.94,33.91,0000 0000 0000 0000 000000
2013-12-29 01:58:44,0.29,9.56,0.00,25.11,26.77,29.56,5.83,31.08,1006.36,2037.00,1289.16,1616.00,1770.98,349.77,318.22,33.92,0000 0000 0000 0000 000000
2013-12-29 01:59:44,0.18,9.56,0.00,25.12,26.77,29.55,6.03,30.96,1006.36,2037.00,1289.05,1616.00,1770.94,350.81,319.31,33.92,0000 0000 0000 0000 000000
2013-12-29 02:00:44,0.10,9.56,0.00,25.13,26.77,29.56,5.77,30.75,1006.36,2037.01,1289.02,1615.96,1770.71,349.94,318.47,33.93,0000 0000 0000 0000 000000
2013-12-29 02:01:45,0.12,9.56,0.00,25.14,26.77,29.57,5.80,31.00,1006.33,2037.00,1289.00,1615.78,1770.40,349.48,317.65,33.93,0000 0000 0000 0000 000000
2013-12-29 02:02:45,0.23,9.56,0.00,25.13,26.77,29.55,5.80,30.79,1006.28,2037.00,1288.96,1615.44,1770.18,349.44,317.86,33.94,0000 0000 0000 0000 000000
2013-12-29 02:03:45,0.32,9.56,0.00,25.13,26.76,29.54,5.76,30.96,1006.22,2037.00,1288.70,1615.19,1770.07,349.93,318.47,33.95,0000 0000 0000 0000 000000
2013-12-29 02:04:46,0.39,9.57,0.00,25.12,26.75,29.53,5.96,30.96,1006.26,2037.00,1288.34,1615.08,1770.05,349.93,318.03,33.95,0000 0000 0000 0000 000000
2013-12-29 02:05:46,0.29,9.57,0.00,25.11,26.75,29.53,5.86,30.71,1006.14,2037.01,1288.19,1615.04,1770.02,349.39,318.06,33.96,0000 0000 0000 0000 000000
2013-12-29 02:06:46,0.16,9.57,0.00,25.10,26.75,29.52,5.71,30.75,1006.07,2037.00,1288.07,1615.01,1770.00,349.75,317.75,33.96,0000 0000 0000 0000 000000
2013-12-29 02:07:46,0.08,9.57,0.00,25.10,26.75,29.53,5.98,31.00,1005.98,2037.00,1288.02,1615.00,1770.00,350.32,318.62,33.97,0000 0000 0000 0000 000000
2013-12-29 02:08:46,0.03,9.57,0.00,25.10,26.75,29.53,5.86,31.00,1005.95,2037.00,1287.99,1615.00,1769.98,350.56,318.81,33.98,0000 0000 0000 0000 000000
2013-12-29 02:09:47,0.02,9.57,0.00,25.08,26.75,29.55,5.74,30.83,1005.94,2037.00,1287.98,1614.99,1769.97,349.07,317.72,33.98,0000 0000 0000 0000 000000
2013-12-29 02:10:47,0.01,9.57,0.00,25.08,26.75,29.56,5.95,30.88,1005.92,2037.00,1287.98,1614.98,1769.86,349.76,318.22,33.99,0000 0000 0000 0000 000000
2013-12-29 02:11:47,0.05,9.57,0.00,25.08,26.75,29.55,5.80,30.71,1005.94,2037.00,1287.95,1614.91,1769.61,349.13,317.53,33.99,0000 0000 0000 0000 000000
2013-12-29 02:12:47,0.21,9.57,0.00,25.10,26.75,29.55,5.72,31.04,1006.08,2037.03,1287.73,1614.69,1769.27,349.32,317.77,34.00,0000 0000 0000 0000 000000
2013-12-29 02:13:48,0.39,9.57,0.00,25.10,26.75,29.55,5.83,30.75,1006.22,2037.02,1287.33,1614.41,1769.11,349.83,318.43,34.00,0000 0000 0000 0000 000000
2013-12-29 02:14:48,0.45,9.58,0.00,25.09,26.75,29.53,5.86,30.79,1006.26,2037.03,1287.14,1614.19,1769.04,350.40,318.79,34.01,0000 0000 0000 0000 000000
2013-12-29 02:15:48,0.30,9.58,0.00,25.08,26.75,29.53,5.89,30.75,1006.24,2037.02,1287.05,1614.09,1769.01,350.27,318.67,34.02,0000 0000 0000 0000 000000
2013-12-29 02:16:48,0.16,9.58,0.00,25.07,26.75,29.52,5.84,30.83,1006.20,2037.04,1287.02,1614.03,1768.99,349.82,318.26,34.02,0000 0000 0000 0000 000000
2013-12-29 02:17:49,0.06,9.58,0.00,25.08,26.75,29.54,5.92,30.92,1006.11,2037.03,1287.00,1614.01,1768.98,350.42,318.74,34.03,0000 0000 0000 0000 000000
2013-12-29 02:18:49,0.02,9.58,0.00,25.08,26.75,29.54,5.78,30.75,1005.98,2037.01,1286.98,1613.99,1768.97,349.34,317.74,34.03,0000 0000 0000 0000 000000
2013-12-29 02:19:49,0.00,9.58,0.00,25.07,26.75,29.54,5.77,30.75,1005.93,2037.01,1286.92,1613.99,1768.83,349.95,318.30,34.04,0000 0000 0000 0000 000000
2013-12-29 02:20:50,0.11,9.58,0.00,25.07,26.75,29.54,5.92,30.75,1005.90,2037.00,1286.58,1613.99,1768.54,350.91,318.99,34.05,0000 0000 0000 0000 000000
2013-12-29 02:21:50,0.32,9.58,0.00,25.06,26.74,29.52,5.82,30.83,1005.89,2037.00,1286.23,1613.94,1768.31,349.63,318.24,34.05,0000 0000 0000 0000 000000
2013-12-29 02:22:50,0.33,9.58,0.00,25.08,26.74,29.51,5.72,30.79,1005.89,2037.01,1286.08,1613.81,1768.16,349.54,318.27,34.06,0000 0000 0000 0000 000000
2013-12-29 02:23:50,0.25,9.59,0.00,25.08,26.74,29.51,5.82,30.96,1005.89,2037.00,1286.03,1613.57,1768.08,349.93,318.02,34.06,0000 0000 0000 0000 000000
2013-12-29 02:24:51,0.19,9.59,0.00,25.07,26.74,29.51,5.76,30.75,1005.92,2037.01,1286.01,1613.34,1768.04,349.28,317.68,34.07,0000 0000 0000 0000 000000
2013-12-29 02:25:51,0.17,9.59,0.00,25.05,26.73,29.51,5.81,30.88,1005.90,2037.00,1286.00,1613.17,1768.01,350.36,318.68,34.07,0000 0000 0000 0000 000000
2013-12-29 02:26:51,0.12,9.59,0.00,25.05,26.73,29.54,5.91,30.83,1005.90,2037.01,1286.00,1613.06,1768.00,350.56,318.76,34.08,0000 0000 0000 0000 000000
2013-12-29 02:27:51,0.08,9.59,0.00,25.04,26.72,29.50,5.76,30.75,1005.89,2037.01,1285.99,1613.02,1768.00,349.30,317.51,34.09,0000 0000 0000 0000 000000
2013-12-29 02:28:52,0.01,9.59,0.00,25.07,26.72,29.50,5.98,30.79,1005.90,2037.01,1285.95,1613.00,1767.98,349.88,318.51,34.09,0000 0000 0000 0000 000000
2013-12-29 02:29:52,0.04,9.59,0.00,25.07,26.72,29.49,6.05,30.79,1005.92,2037.03,1285.73,1613.00,1767.98,350.47,318.44,34.10,0000 0000 0000 0000 000000
2013-12-29 02:30:52,0.17,9.59,0.00,25.06,26.72,29.50,5.78,30.83,1006.01,2037.03,1285.39,1612.99,1767.93,349.88,318.26,34.10,0000 0000 0000 0000 000000
2013-12-29 02:31:52,0.30,9.59,0.00,25.04,26.72,29.52,5.76,30.63,1006.13,2037.04,1285.18,1612.98,1767.63,349.17,317.75,34.11,0000 0000 0000 0000 000000
2013-12-29 02:32:53,0.25,9.59,0.00,25.04,26.72,29.54,5.89,30.79,1006.32,2037.03,1285.06,1612.97,1767.29,350.23,318.38,34.12,0000 0000 0000 0000 000000
2013-12-29 02:33:53,0.16,9.59,0.00,25.04,26.72,29.53,5.77,30.71,1006.33,2037.04,1285.02,1612.90,1767.13,349.73,317.94,34.12,0000 0000 0000 0000 000000
2013-12-29 02:34:53,0.15,9.60,0.00,25.05,26.72,29.51,5.86,30.88,1006.34,2037.02,1285.00,1612.73,1767.06,349.80,318.30,34.13,0000 0000 0000 0000 000000
2013-12-29 02:35:53,0.13,9.60,0.00,25.05,26.72,29.48,5.77,30.88,1006.36,2037.04,1284.96,1612.38,1767.02,349.09,317.67,34.13,0000 0000 0000 0000 000000